Weather History for Redmond, OR

Change the Weather History Date:

Sunday, October 20, 2013

  Actual Average Record
Temperature  
Mean Temperature 49 °F 46 °F  
Max Temperature 71 °F 62 °F 84 °F (1999)
Min Temperature 26 °F 31 °F 18 °F (1976)
Degree Days  
Heating Degree Days 16 19  
Month to date heating degree days 431 317  
Since 1 July heating degree days 697 716  
Cooling Degree Days 0 0  
Month to date cooling degree days 0 0  
Year to date cooling degree days 350 222  
Moisture  
Dew Point 29 °F    
Average Humidity 50    
Maximum Humidity 78    
Minimum Humidity 22    
Precipitation  
Precipitation 0.00 in 0.02 in 0.30 in (1951)
Month to date precipitation 0.05 0.36  
Year to date precipitation 4.14 6.50  
Sea Level Pressure  
Sea Level Pressure 30.17 in    
Wind  
Wind Speed 3 mph (SSE)    
Max Wind Speed 10 mph    
Max Gust Speed 13 mph    
Visibility 10 miles    
Events      
T = Trace of Precipitation, MM = Missing Value Source: NWS Daily Summary

Daily Weather History Graph

Daily Weather History Graph

Search for Another Location

Airport:

Trip Planner

Search our weather history database for the weather conditions in past years. The results will help you decide how hot, cold, wet, or windy it might be!

Date:

Astronomy

Oct. 20, 2013 Rise Set
Actual Time 7:26 AM PDT 6:11 PM PDT
Civil Twilight 6:56 AM PDT 6:41 PM PDT
Nautical Twilight 6:23 AM PDT 7:14 PM PDT
Astronomical Twilight 5:49 AM PDT 7:48 PM PDT
Moon 7:19 PM PDT (10/20) 9:13 AM PDT (10/20)
Length of Visible Light 11h 44m
Length of Day
10h 45m
Waning Gibbous, 97% of the Moon is Illuminated
Oct 20
Waning Gibbous
Oct 26
Last Quarter
Nov 3
New
Nov 9
First Quarter
Nov 17
Full

Hourly Weather History & Observations

Time (PDT) Temp. Windchill Dew Point Humidity Pressure Visibility Wind Dir Wind Speed Gust Speed Precip Events Conditions
12:56 AM 39.9 °F 36.7 °F 28.0 °F 63% 30.14 in 10.0 mi South 4.6 mph - N/A   Clear
1:56 AM 37.9 °F - 27.0 °F 65% 30.15 in 10.0 mi Calm Calm - N/A   Clear
2:56 AM 37.0 °F 31.6 °F 26.1 °F 65% 30.15 in 10.0 mi South 6.9 mph - N/A   Clear
3:56 AM 35.1 °F - 26.1 °F 70% 30.15 in 10.0 mi Calm Calm - N/A   Clear
4:56 AM 34.0 °F - 25.0 °F 70% 30.15 in 10.0 mi Calm Calm - N/A   Clear
5:56 AM 28.9 °F 25.2 °F 23.0 °F 78% 30.18 in 10.0 mi East 3.5 mph - N/A   Clear
6:56 AM 32.0 °F 26.4 °F 24.1 °F 73% 30.19 in 10.0 mi SE 5.8 mph - N/A   Clear
7:56 AM 28.9 °F 25.2 °F 23.0 °F 78% 30.23 in 10.0 mi SE 3.5 mph - N/A   Clear
8:56 AM 42.1 °F 39.2 °F 27.0 °F 55% 30.23 in 10.0 mi SSE 4.6 mph - N/A   Clear
9:56 AM 50.0 °F - 28.9 °F 44% 30.21 in 10.0 mi South 3.5 mph - N/A   Clear
10:56 AM 55.9 °F - 30.0 °F 37% 30.20 in 10.0 mi Calm Calm - N/A   Clear
11:56 AM 61.0 °F - 30.0 °F 31% 30.19 in 10.0 mi Calm Calm - N/A   Clear
12:56 PM 66.0 °F - 30.0 °F 26% 30.15 in 10.0 mi Calm Calm - N/A   Clear
1:56 PM 66.9 °F - 30.9 °F 26% 30.14 in 10.0 mi Variable 4.6 mph - N/A   Clear
2:56 PM 69.1 °F - 30.9 °F 24% 30.12 in 10.0 mi North 5.8 mph - N/A   Clear
3:56 PM 71.1 °F - 30.9 °F 23% 30.12 in 10.0 mi Variable 6.9 mph - N/A   Clear
4:56 PM 68.0 °F - 32.0 °F 26% 30.12 in 10.0 mi NNW 9.2 mph - N/A   Clear
5:56 PM 63.0 °F - 33.1 °F 33% 30.15 in 10.0 mi NNW 8.1 mph - N/A   Clear
6:56 PM 57.0 °F - 35.1 °F 44% 30.16 in 10.0 mi NNW 3.5 mph - N/A   Clear
7:56 PM 48.0 °F - 32.0 °F 54% 30.18 in 10.0 mi Calm Calm - N/A   Clear
8:56 PM 46.0 °F - 32.0 °F 58% 30.17 in 10.0 mi Calm Calm - N/A   Clear
9:56 PM 43.0 °F - 30.9 °F 62% 30.17 in 10.0 mi Calm Calm - N/A   Clear
10:56 PM 41.0 °F 37.1 °F 30.0 °F 65% 30.17 in 10.0 mi South 5.8 mph - N/A   Clear
11:56 PM 41.0 °F 36.4 °F 30.0 °F 65% 30.17 in 10.0 mi South 6.9 mph - N/A   Clear